UAL5521 KSAN-KSFO

Flight info

Callsign UAL5521
Flight time N/A
Altitude 36000
Route PADRZ2 IKAYE RIZIN SPLNT STOKD SERFR SERFR4
Aircraft A20N/M-SDE2E3FGHIRWXY/LB1

Departure

Time 2026-05-06 16:41
Airport San Diego International Airport (KSAN)

Arrival

Time N/A
Airport San Francisco International Airport (KSFO)
Time Latitude Longitude Altitude Speed Heading
2026-05-06 16:13 32.73304 -117.20072 25 ft 0 kts 275°
2026-05-06 16:32 32.73304 -117.20071 25 ft 0 kts 275°
2026-05-06 16:32 32.73303 -117.20058 30 ft 3 kts 290°
2026-05-06 16:33 32.73298 -117.20036 29 ft 3 kts 282°
2026-05-06 16:33 32.73293 -117.20012 29 ft 3 kts 289°
2026-05-06 16:33 32.73286 -117.19993 29 ft 3 kts 336°
2026-05-06 16:34 32.73279 -117.19990 28 ft 0 kts
2026-05-06 16:34 32.73278 -117.19990 28 ft 0 kts
2026-05-06 16:35 32.73279 -117.19990 28 ft 1 kts
2026-05-06 16:35 32.73295 -117.19989 27 ft 4 kts
2026-05-06 16:36 32.73343 -117.19984 30 ft 9 kts
2026-05-06 16:36 32.73435 -117.19961 26 ft 15 kts 12°
2026-05-06 16:36 32.73472 -117.19868 27 ft 15 kts 96°
2026-05-06 16:36 32.73435 -117.19713 30 ft 23 kts 105°
2026-05-06 16:37 32.73394 -117.19538 27 ft 21 kts 107°
2026-05-06 16:37 32.73350 -117.19363 28 ft 23 kts 106°
2026-05-06 16:37 32.73307 -117.19183 25 ft 22 kts 106°
2026-05-06 16:37 32.73263 -117.19005 27 ft 23 kts 106°
2026-05-06 16:38 32.73216 -117.18816 28 ft 24 kts 106°
2026-05-06 16:38 32.73170 -117.18622 31 ft 22 kts 104°
2026-05-06 16:38 32.73127 -117.18444 30 ft 24 kts 106°
2026-05-06 16:38 32.73079 -117.18250 32 ft 26 kts 106°
2026-05-06 16:39 32.73029 -117.18045 27 ft 24 kts 106°
2026-05-06 16:39 32.72980 -117.17840 25 ft 26 kts 106°
2026-05-06 16:39 32.72955 -117.17687 25 ft 15 kts 81°
2026-05-06 16:39 32.73008 -117.17611 29 ft 12 kts 351°
2026-05-06 16:40 32.73057 -117.17734 26 ft 38 kts 285°
2026-05-06 16:40 32.73197 -117.18315 30 ft 105 kts 286°
2026-05-06 16:40 32.73447 -117.19349 70 ft 148 kts 286°
2026-05-06 16:40 32.73836 -117.20518 517 ft 155 kts 300°
2026-05-06 16:41 32.74399 -117.21625 1113 ft 159 kts 302°
2026-05-06 16:41 32.75002 -117.22729 1752 ft 165 kts 303°
2026-05-06 16:41 32.75662 -117.23924 2365 ft 182 kts 303°
2026-05-06 16:41 32.76386 -117.25249 3006 ft 200 kts 303°
2026-05-06 16:42 32.77167 -117.26696 3692 ft 217 kts 304°
2026-05-06 16:42 32.78019 -117.28280 4301 ft 239 kts 304°
2026-05-06 16:42 32.78955 -117.30024 4970 ft 258 kts 304°
2026-05-06 16:42 32.79948 -117.31841 5853 ft 266 kts 308°
2026-05-06 16:43 32.81092 -117.33617 6751 ft 274 kts 310°
2026-05-06 16:43 32.82264 -117.35428 7701 ft 278 kts 310°
2026-05-06 16:43 32.83455 -117.37272 8640 ft 284 kts 311°
2026-05-06 16:43 32.84668 -117.39152 9593 ft 289 kts 311°
2026-05-06 16:44 32.85902 -117.41067 10473 ft 296 kts 311°
2026-05-06 16:44 32.87203 -117.43079 10925 ft 318 kts 311°
2026-05-06 16:44 32.88600 -117.45239 11300 ft 339 kts 311°
2026-05-06 16:44 32.90049 -117.47492 12072 ft 344 kts 311°
2026-05-06 16:45 32.91506 -117.49765 12998 ft 346 kts 311°
2026-05-06 16:45 32.92975 -117.52059 13886 ft 350 kts 311°
2026-05-06 16:45 32.94459 -117.54373 14643 ft 354 kts 311°
2026-05-06 16:45 32.95962 -117.56717 15373 ft 358 kts 311°
2026-05-06 16:46 32.97484 -117.59089 16101 ft 363 kts 311°
2026-05-06 16:46 32.99005 -117.61463 16823 ft 367 kts 311°
2026-05-06 16:46 33.00561 -117.63891 17529 ft 371 kts 311°
2026-05-06 16:46 33.02138 -117.66352 18222 ft 376 kts 311°
2026-05-06 16:47 33.03734 -117.68845 18863 ft 380 kts 311°
2026-05-06 16:47 33.05341 -117.71351 19516 ft 381 kts 313°
2026-05-06 16:47 33.07123 -117.73686 20157 ft 380 kts 321°
2026-05-06 16:47 33.09120 -117.75757 20789 ft 381 kts 324°
2026-05-06 16:48 33.11152 -117.77808 21427 ft 384 kts 324°
2026-05-06 16:48 33.13195 -117.79885 22051 ft 387 kts 324°
2026-05-06 16:48 33.15250 -117.81978 22665 ft 390 kts 324°
2026-05-06 16:48 33.17324 -117.84093 23274 ft 394 kts 324°
2026-05-06 16:49 33.19402 -117.86233 23835 ft 398 kts 322°
2026-05-06 16:49 33.21393 -117.88577 24295 ft 404 kts 320°
2026-05-06 16:49 33.23388 -117.90963 24774 ft 407 kts 320°
2026-05-06 16:49 33.25396 -117.93358 25245 ft 410 kts 320°
2026-05-06 16:50 33.27423 -117.95775 25702 ft 413 kts 320°
2026-05-06 16:50 33.29464 -117.98210 26142 ft 416 kts 320°
2026-05-06 16:50 33.31497 -118.00636 26583 ft 420 kts 321°
2026-05-06 16:50 33.32895 -118.02307 26874 ft 422 kts 321°
2026-05-06 16:51 33.35656 -118.05609 27432 ft 426 kts 321°
2026-05-06 16:51 33.37756 -118.08122 27826 ft 428 kts 320°
2026-05-06 16:51 33.39873 -118.10656 28202 ft 432 kts 320°
2026-05-06 16:51 33.42003 -118.13209 28589 ft 435 kts 320°
2026-05-06 16:52 33.44146 -118.15779 28965 ft 437 kts 321°
2026-05-06 16:52 33.46305 -118.18363 29334 ft 440 kts 320°
2026-05-06 16:52 33.48475 -118.20971 29672 ft 443 kts 320°
2026-05-06 16:52 33.50653 -118.23593 30024 ft 446 kts 320°
2026-05-06 16:53 33.52848 -118.26236 30345 ft 449 kts 320°
2026-05-06 16:53 33.54308 -118.27995 30559 ft 450 kts 321°
2026-05-06 16:53 33.56518 -118.30659 30883 ft 451 kts 321°
2026-05-06 16:53 33.58735 -118.33333 31213 ft 453 kts 321°
2026-05-06 16:54 33.60960 -118.36020 31583 ft 453 kts 321°
2026-05-06 16:54 33.63182 -118.38703 31986 ft 453 kts 321°
2026-05-06 16:54 33.65397 -118.41382 32408 ft 452 kts 321°
2026-05-06 16:54 33.67609 -118.44058 32826 ft 451 kts 321°
2026-05-06 16:55 33.69815 -118.46729 33248 ft 450 kts 321°
2026-05-06 16:55 33.72012 -118.49391 33657 ft 449 kts 321°
2026-05-06 16:55 33.74206 -118.52052 34047 ft 448 kts 322°
2026-05-06 16:55 33.76399 -118.54712 34372 ft 448 kts 321°
2026-05-06 16:56 33.78591 -118.57372 34694 ft 447 kts 321°
2026-05-06 16:56 33.80777 -118.60028 35013 ft 446 kts 321°
2026-05-06 16:56 33.82886 -118.62590 35309 ft 446 kts 321°
2026-05-06 16:56 33.84725 -118.64826 35557 ft 445 kts 321°
2026-05-06 16:57 33.86901 -118.67473 35823 ft 445 kts 321°
2026-05-06 16:57 33.89076 -118.70121 36078 ft 444 kts 320°
2026-05-06 16:57 33.91248 -118.72769 36138 ft 444 kts 320°
2026-05-06 16:58 33.95551 -118.78024 36137 ft 444 kts 320°
2026-05-06 16:58 33.99885 -118.83323 36139 ft 444 kts 320°
2026-05-06 16:59 34.04214 -118.88626 36138 ft 443 kts 320°
2026-05-06 16:59 34.08536 -118.93926 36142 ft 443 kts 320°